Brangus — WDB4516 — position and weather

sailwx.info

Track history (hours):
 
Tides and Currents Weather Stations Pressure Air Temp Water Temp Dewpoint Dewpoint Depression Visibility Wind Speed Wind Dir Waves Ship Positions

Brangus

Owner: Great Lakes Dredge & Dock Company, Oak Brook, IL. More information available from US FCC via Universal Licensing System and Coast Guard Vessel Documentation Center.

Last reported at 2014-Oct-31 12:34 UTC. Time now 2014-Oct-31 13:27 UTC.
Position N 25°48' W 080°11'.

Length 46 m; draft 2.3 m.

Type: Tug. MMSI: 366899270.

Date/timePositionNaut miles runAvg speedWind from/ knotsBaromVisibWave heightAir tempDewpointWater temp
2014-Oct-31 12:34N 25°48' W 080°11'5 4.7
2014-Oct-31 11:33N 25°46' W 080°06'0 0.0
2014-Oct-31 10:33N 25°46' W 080°06'0 0.0
2014-Oct-31 09:17N 25°46' W 080°06'0 0.1
2014-Oct-31 08:33N 25°46' W 080°06'0 0.0
2014-Oct-31 07:33N 25°46' W 080°06'0 0.0
2014-Oct-31 06:32N 25°46' W 080°06'0 0.0
2014-Oct-31 05:33N 25°46' W 080°06'0 0.0
2014-Oct-31 03:33N 25°46' W 080°06'0 0.0
2014-Oct-31 02:30N 25°46' W 080°06'0 0.1
2014-Oct-31 00:32N 25°46' W 080°06'0 0.0
2014-Oct-30 23:32N 25°46' W 080°06'0 0.0
2014-Oct-30 22:28N 25°46' W 080°06'1 0.1
2014-Oct-30 11:13N 25°45' W 080°07'1 0.5
2014-Oct-30 09:33N 25°46' W 080°06'0 0.2
2014-Oct-30 08:34N 25°46' W 080°06'0 0.0
2014-Oct-30 07:24N 25°46' W 080°06'0 0.0
2014-Oct-30 06:33N 25°46' W 080°06'0 0.0
2014-Oct-30 05:34N 25°46' W 080°06'0 0.0
2014-Oct-30 04:34N 25°46' W 080°06'0 0.0
2014-Oct-30 03:30N 25°46' W 080°06'0 0.0
2014-Oct-30 02:33N 25°46' W 080°06'0 0.2
2014-Oct-30 01:33N 25°46' W 080°06'0 0.2
2014-Oct-30 00:33N 25°46' W 080°06'0 0.0
2014-Oct-29 23:33N 25°46' W 080°06'0 0.0
2014-Oct-29 22:32N 25°46' W 080°06'0 0.0
2014-Oct-29 21:33N 25°46' W 080°06'0 0.0
2014-Oct-29 20:32N 25°46' W 080°06'0 0.1
2014-Oct-29 19:33N 25°46' W 080°06'1 1.2
2014-Oct-29 18:33N 25°46' W 080°07'1 0.1
2014-Oct-29 11:13N 25°45' W 080°07'1 1.1
2014-Oct-29 10:33N 25°46' W 080°06'0 0.0
2014-Oct-29 09:33N 25°46' W 080°06'0 0.0
2014-Oct-29 08:33N 25°46' W 080°06'0 0.0
2014-Oct-29 07:30N 25°46' W 080°06'0 0.0
2014-Oct-29 06:32N 25°46' W 080°06'0 0.0
2014-Oct-29 05:31N 25°46' W 080°06'0 0.1
2014-Oct-29 04:33N 25°46' W 080°06'0 0.1
2014-Oct-29 02:33N 25°46' W 080°06'0 0.1
2014-Oct-29 01:33N 25°46' W 080°06'0 0.3
2014-Oct-29 00:33N 25°46' W 080°06'0 0.2
2014-Oct-28 23:33N 25°46' W 080°06'0 0.0
2014-Oct-28 22:27N 25°46' W 080°06'0 0.0
2014-Oct-28 21:33N 25°46' W 080°06'0 0.0
2014-Oct-28 20:31N 25°46' W 080°06'0 0.0
2014-Oct-28 19:33N 25°46' W 080°06'0 0.1
2014-Oct-28 18:33N 25°46' W 080°06'0 0.1
2014-Oct-28 17:33N 25°46' W 080°06'1 1.2
2014-Oct-28 16:31N 25°46' W 080°07'0 0.1
2014-Oct-28 11:12N 25°45' W 080°07'1 1.3
2014-Oct-28 10:33N 25°46' W 080°06'0 0.0
2014-Oct-28 09:33N 25°46' W 080°06'0 0.0
2014-Oct-28 08:32N 25°46' W 080°06'0 0.0
2014-Oct-28 07:33N 25°46' W 080°06'0 0.0
2014-Oct-28 06:33N 25°46' W 080°06'0 0.1
2014-Oct-28 05:23N 25°46' W 080°06'0 0.0
2014-Oct-27 23:33N 25°46' W 080°06'0 0.0
2014-Oct-27 22:33N 25°46' W 080°06'0 0.0
2014-Oct-27 21:34N 25°46' W 080°06'0 0.0
2014-Oct-27 20:33N 25°46' W 080°06'0 0.0
2014-Oct-27 19:31N 25°46' W 080°06'0 0.3
2014-Oct-27 18:33N 25°45' W 080°06'0 0.2
2014-Oct-27 17:31N 25°46' W 080°06'2 0.7
2014-Oct-27 14:16N 25°46' W 080°09'0 0.2
2014-Oct-27 13:26N 25°46' W 080°08'2 1.6
2014-Oct-27 12:28N 25°45' W 080°07'2 0.1
2014-Oct-26 07:07N 25°46' W 080°09'0 0.0
2014-Oct-26 06:15N 25°46' W 080°09'0 0.0
2014-Oct-26 05:26N 25°46' W 080°09'0 0.0
2014-Oct-25 17:28N 25°46' W 080°08'0 0.0
2014-Oct-25 07:05N 25°46' W 080°08'0 0.0
2014-Oct-25 06:11N 25°46' W 080°08'0 0.0
2014-Oct-25 04:10N 25°46' W 080°08'0 0.0
2014-Oct-24 22:30N 25°46' W 080°08'0 0.0
2014-Oct-24 20:24N 25°46' W 080°08'0 0.0
2014-Oct-24 13:19N 25°46' W 080°08'0 0.0
2014-Oct-24 10:32N 25°46' W 080°08'0 0.0
2014-Oct-24 09:30N 25°46' W 080°08'0 0.1
2014-Oct-24 08:25N 25°46' W 080°08'0 0.1
2014-Oct-24 06:10N 25°46' W 080°09'2 2.1
2014-Oct-24 05:25N 25°45' W 080°07'1 1.1
2014-Oct-24 04:33N 25°46' W 080°06'0 0.0
2014-Oct-24 03:33N 25°46' W 080°06'0 0.0
2014-Oct-24 02:31N 25°46' W 080°06'1 0.3
2014-Oct-24 00:04N 25°45' W 080°06'1 1.0
2014-Oct-23 23:33N 25°46' W 080°06'0 0.1
2014-Oct-23 22:33N 25°46' W 080°06'0 0.0
2014-Oct-23 21:19N 25°46' W 080°06'0 0.1
2014-Oct-23 20:28N 25°46' W 080°06'0 0.0
2014-Oct-23 19:31N 25°46' W 080°06'0 0.0
2014-Oct-23 18:22N 25°46' W 080°06'0 0.0
2014-Oct-23 17:32N 25°46' W 080°06'0 0.0
2014-Oct-23 16:33N 25°46' W 080°06'0 0.0
2014-Oct-23 15:32N 25°46' W 080°06'0 0.0
2014-Oct-23 14:33N 25°46' W 080°06'0 0.0
2014-Oct-23 13:33N 25°46' W 080°06'0 0.2
2014-Oct-23 12:32N 25°46' W 080°06'1 0.7
2014-Oct-23 11:12N 25°45' W 080°07'1 1.2
2014-Oct-23 10:33N 25°46' W 080°06'0 0.0
2014-Oct-23 09:34N 25°46' W 080°06'0 0.1
2014-Oct-23 08:21N 25°46' W 080°06'0 0.0
2014-Oct-23 07:24N 25°46' W 080°06'0 0.0
2014-Oct-23 06:25N 25°46' W 080°06'0 0.0
2014-Oct-23 03:34N 25°46' W 080°06'0 0.0
2014-Oct-23 02:17N 25°46' W 080°06'0 0.1
2014-Oct-23 01:28N 25°46' W 080°06'0 0.1
2014-Oct-23 00:22N 25°46' W 080°06'0 0.0
2014-Oct-22 20:32N 25°46' W 080°06'0 0.0
2014-Oct-22 19:10N 25°46' W 080°06'0 0.0
2014-Oct-22 15:17N 25°46' W 080°06'0 0.1
2014-Oct-22 14:30N 25°46' W 080°06'0 0.0
2014-Oct-22 13:18N 25°46' W 080°06'0 0.1
2014-Oct-22 12:33N 25°46' W 080°06'0 0.0
2014-Oct-22 11:33N 25°46' W 080°06'0 0.0
2014-Oct-22 10:29N 25°46' W 080°06'0 0.0
2014-Oct-22 09:33N 25°46' W 080°06'0 0.0
2014-Oct-22 08:33N 25°46' W 080°06'0 0.0
2014-Oct-22 07:31N 25°46' W 080°06'0 0.1
2014-Oct-22 06:33N 25°46' W 080°06'0 0.1
2014-Oct-22 05:33N 25°46' W 080°06'0 0.0
2014-Oct-22 04:33N 25°46' W 080°06'0 0.0
2014-Oct-22 03:33N 25°46' W 080°06'0 0.0
2014-Oct-22 02:31N 25°46' W 080°06'0 0.0
2014-Oct-22 01:33N 25°46' W 080°06'0 0.0
2014-Oct-22 00:20N 25°46' W 080°06'0 0.1
2014-Oct-21 23:31N 25°46' W 080°06'2 1.9
2014-Oct-21 22:32N 25°46' W 080°08'0 0.2
2014-Oct-21 20:08N 25°46' W 080°09'2 4.1
2014-Oct-21 19:33N 25°46' W 080°06'0 0.0
2014-Oct-21 18:33N 25°46' W 080°06'0 0.1
2014-Oct-21 17:33N 25°46' W 080°06'0 0.1
2014-Oct-21 16:33N 25°46' W 080°06'0 0.0
2014-Oct-21 15:33N 25°46' W 080°06'0 0.0
2014-Oct-21 14:33N 25°46' W 080°06'0 0.0
2014-Oct-21 13:34N 25°46' W 080°06'  
Track history (hours):
 
Tides and Currents Weather Stations Pressure Air Temp Water Temp Dewpoint Dewpoint Depression Visibility Wind Speed Wind Dir Waves Ship Positions

Brangus

Owner: Great Lakes Dredge & Dock Company, Oak Brook, IL. More information available from US FCC via Universal Licensing System and Coast Guard Vessel Documentation Center.

Last reported at 2014-Oct-31 12:34 UTC. Time now 2014-Oct-31 13:27 UTC.
Position N 25°48' W 080°11'.

Length 46 m; draft 2.3 m.

Type: Tug. MMSI: 366899270.

Date/timePositionNaut miles runAvg speedWind from/ knotsBaromVisibWave heightAir tempDewpointWater temp
2014-Oct-31 12:34N 25°48' W 080°11'5 4.7
2014-Oct-31 11:33N 25°46' W 080°06'0 0.0
2014-Oct-31 10:33N 25°46' W 080°06'0 0.0
2014-Oct-31 09:17N 25°46' W 080°06'0 0.1
2014-Oct-31 08:33N 25°46' W 080°06'0 0.0
2014-Oct-31 07:33N 25°46' W 080°06'0 0.0
2014-Oct-31 06:32N 25°46' W 080°06'0 0.0
2014-Oct-31 05:33N 25°46' W 080°06'0 0.0
2014-Oct-31 03:33N 25°46' W 080°06'0 0.0
2014-Oct-31 02:30N 25°46' W 080°06'0 0.1
2014-Oct-31 00:32N 25°46' W 080°06'0 0.0
2014-Oct-30 23:32N 25°46' W 080°06'0 0.0
2014-Oct-30 22:28N 25°46' W 080°06'1 0.1
2014-Oct-30 11:13N 25°45' W 080°07'1 0.5
2014-Oct-30 09:33N 25°46' W 080°06'0 0.2
2014-Oct-30 08:34N 25°46' W 080°06'0 0.0
2014-Oct-30 07:24N 25°46' W 080°06'0 0.0
2014-Oct-30 06:33N 25°46' W 080°06'0 0.0
2014-Oct-30 05:34N 25°46' W 080°06'0 0.0
2014-Oct-30 04:34N 25°46' W 080°06'0 0.0
2014-Oct-30 03:30N 25°46' W 080°06'0 0.0
2014-Oct-30 02:33N 25°46' W 080°06'0 0.2
2014-Oct-30 01:33N 25°46' W 080°06'0 0.2
2014-Oct-30 00:33N 25°46' W 080°06'0 0.0
2014-Oct-29 23:33N 25°46' W 080°06'0 0.0
2014-Oct-29 22:32N 25°46' W 080°06'0 0.0
2014-Oct-29 21:33N 25°46' W 080°06'0 0.0
2014-Oct-29 20:32N 25°46' W 080°06'0 0.1
2014-Oct-29 19:33N 25°46' W 080°06'1 1.2
2014-Oct-29 18:33N 25°46' W 080°07'1 0.1
2014-Oct-29 11:13N 25°45' W 080°07'1 1.1
2014-Oct-29 10:33N 25°46' W 080°06'0 0.0
2014-Oct-29 09:33N 25°46' W 080°06'0 0.0
2014-Oct-29 08:33N 25°46' W 080°06'0 0.0
2014-Oct-29 07:30N 25°46' W 080°06'0 0.0
2014-Oct-29 06:32N 25°46' W 080°06'0 0.0
2014-Oct-29 05:31N 25°46' W 080°06'0 0.1
2014-Oct-29 04:33N 25°46' W 080°06'0 0.1
2014-Oct-29 02:33N 25°46' W 080°06'0 0.1
2014-Oct-29 01:33N 25°46' W 080°06'0 0.3
2014-Oct-29 00:33N 25°46' W 080°06'0 0.2
2014-Oct-28 23:33N 25°46' W 080°06'0 0.0
2014-Oct-28 22:27N 25°46' W 080°06'0 0.0
2014-Oct-28 21:33N 25°46' W 080°06'0 0.0
2014-Oct-28 20:31N 25°46' W 080°06'0 0.0
2014-Oct-28 19:33N 25°46' W 080°06'0 0.1
2014-Oct-28 18:33N 25°46' W 080°06'0 0.1
2014-Oct-28 17:33N 25°46' W 080°06'1 1.2
2014-Oct-28 16:31N 25°46' W 080°07'0 0.1
2014-Oct-28 11:12N 25°45' W 080°07'1 1.3
2014-Oct-28 10:33N 25°46' W 080°06'0 0.0
2014-Oct-28 09:33N 25°46' W 080°06'0 0.0
2014-Oct-28 08:32N 25°46' W 080°06'0 0.0
2014-Oct-28 07:33N 25°46' W 080°06'0 0.0
2014-Oct-28 06:33N 25°46' W 080°06'0 0.1
2014-Oct-28 05:23N 25°46' W 080°06'0 0.0
2014-Oct-27 23:33N 25°46' W 080°06'0 0.0
2014-Oct-27 22:33N 25°46' W 080°06'0 0.0
2014-Oct-27 21:34N 25°46' W 080°06'0 0.0
2014-Oct-27 20:33N 25°46' W 080°06'0 0.0
2014-Oct-27 19:31N 25°46' W 080°06'0 0.3
2014-Oct-27 18:33N 25°45' W 080°06'0 0.2
2014-Oct-27 17:31N 25°46' W 080°06'2 0.7
2014-Oct-27 14:16N 25°46' W 080°09'0 0.2
2014-Oct-27 13:26N 25°46' W 080°08'2 1.6
2014-Oct-27 12:28N 25°45' W 080°07'2 0.1
2014-Oct-26 07:07N 25°46' W 080°09'0 0.0
2014-Oct-26 06:15N 25°46' W 080°09'0 0.0
2014-Oct-26 05:26N 25°46' W 080°09'0 0.0
2014-Oct-25 17:28N 25°46' W 080°08'0 0.0
2014-Oct-25 07:05N 25°46' W 080°08'0 0.0
2014-Oct-25 06:11N 25°46' W 080°08'0 0.0
2014-Oct-25 04:10N 25°46' W 080°08'0 0.0
2014-Oct-24 22:30N 25°46' W 080°08'0 0.0
2014-Oct-24 20:24N 25°46' W 080°08'0 0.0
2014-Oct-24 13:19N 25°46' W 080°08'0 0.0
2014-Oct-24 10:32N 25°46' W 080°08'0 0.0
2014-Oct-24 09:30N 25°46' W 080°08'0 0.1
2014-Oct-24 08:25N 25°46' W 080°08'0 0.1
2014-Oct-24 06:10N 25°46' W 080°09'2 2.1
2014-Oct-24 05:25N 25°45' W 080°07'1 1.1
2014-Oct-24 04:33N 25°46' W 080°06'0 0.0
2014-Oct-24 03:33N 25°46' W 080°06'0 0.0
2014-Oct-24 02:31N 25°46' W 080°06'1 0.3
2014-Oct-24 00:04N 25°45' W 080°06'1 1.0
2014-Oct-23 23:33N 25°46' W 080°06'0 0.1
2014-Oct-23 22:33N 25°46' W 080°06'0 0.0
2014-Oct-23 21:19N 25°46' W 080°06'0 0.1
2014-Oct-23 20:28N 25°46' W 080°06'0 0.0
2014-Oct-23 19:31N 25°46' W 080°06'0 0.0
2014-Oct-23 18:22N 25°46' W 080°06'0 0.0
2014-Oct-23 17:32N 25°46' W 080°06'0 0.0
2014-Oct-23 16:33N 25°46' W 080°06'0 0.0
2014-Oct-23 15:32N 25°46' W 080°06'0 0.0
2014-Oct-23 14:33N 25°46' W 080°06'0 0.0
2014-Oct-23 13:33N 25°46' W 080°06'0 0.2
2014-Oct-23 12:32N 25°46' W 080°06'1 0.7
2014-Oct-23 11:12N 25°45' W 080°07'1 1.2
2014-Oct-23 10:33N 25°46' W 080°06'0 0.0
2014-Oct-23 09:34N 25°46' W 080°06'0 0.1
2014-Oct-23 08:21N 25°46' W 080°06'0 0.0
2014-Oct-23 07:24N 25°46' W 080°06'0 0.0
2014-Oct-23 06:25N 25°46' W 080°06'0 0.0
2014-Oct-23 03:34N 25°46' W 080°06'0 0.0
2014-Oct-23 02:17N 25°46' W 080°06'0 0.1
2014-Oct-23 01:28N 25°46' W 080°06'0 0.1
2014-Oct-23 00:22N 25°46' W 080°06'0 0.0
2014-Oct-22 20:32N 25°46' W 080°06'0 0.0
2014-Oct-22 19:10N 25°46' W 080°06'0 0.0
2014-Oct-22 15:17N 25°46' W 080°06'0 0.1
2014-Oct-22 14:30N 25°46' W 080°06'0 0.0
2014-Oct-22 13:18N 25°46' W 080°06'0 0.1
2014-Oct-22 12:33N 25°46' W 080°06'0 0.0
2014-Oct-22 11:33N 25°46' W 080°06'0 0.0
2014-Oct-22 10:29N 25°46' W 080°06'0 0.0
2014-Oct-22 09:33N 25°46' W 080°06'0 0.0
2014-Oct-22 08:33N 25°46' W 080°06'0 0.0
2014-Oct-22 07:31N 25°46' W 080°06'0 0.1
2014-Oct-22 06:33N 25°46' W 080°06'0 0.1
2014-Oct-22 05:33N 25°46' W 080°06'0 0.0
2014-Oct-22 04:33N 25°46' W 080°06'0 0.0
2014-Oct-22 03:33N 25°46' W 080°06'0 0.0
2014-Oct-22 02:31N 25°46' W 080°06'0 0.0
2014-Oct-22 01:33N 25°46' W 080°06'0 0.0
2014-Oct-22 00:20N 25°46' W 080°06'0 0.1
2014-Oct-21 23:31N 25°46' W 080°06'2 1.9
2014-Oct-21 22:32N 25°46' W 080°08'0 0.2
2014-Oct-21 20:08N 25°46' W 080°09'2 4.1
2014-Oct-21 19:33N 25°46' W 080°06'0 0.0
2014-Oct-21 18:33N 25°46' W 080°06'0 0.1
2014-Oct-21 17:33N 25°46' W 080°06'0 0.1
2014-Oct-21 16:33N 25°46' W 080°06'0 0.0
2014-Oct-21 15:33N 25°46' W 080°06'0 0.0
2014-Oct-21 14:33N 25°46' W 080°06'0 0.0
2014-Oct-21 13:34N 25°46' W 080°06'  

Dump ship's entire track history